LRTM Weather Reports


time (UTC)temp
C
wind
direction
speed
KPH
gust
KPH
rain 1hr
cm
rain 24hr
cm
rain mn
cm
humidity
%
barometer
mb
20260503224826 3 80 4.8 0.0 0.00 0.00 0.00 75 1019.0
20260503223338 3 80 4.8 0.0 0.00 0.00 0.00 75 1019.0
20260503221843 5 80 4.8 0.0 0.00 0.00 0.00 70 1019.0
20260503220408 5 80 4.8 0.0 0.00 0.00 0.00 70 1019.0
20260503214833 6 70 3.2 0.0 0.00 0.00 0.00 76 1019.0
20260503213326 6 70 3.2 0.0 0.00 0.00 0.00 76 1019.0
20260503211827 6 20 1.6 0.0 0.00 0.00 0.00 71 1019.0
20260503210326 6 20 1.6 0.0 0.00 0.00 0.00 71 1019.0
20260503204833 7 1.6 0.0 0.00 0.00 0.00 66 1019.0
20260503203444 7 1.6 0.0 0.00 0.00 0.00 66 1019.0
20260503201826 7 250 4.8 0.0 0.00 0.00 0.00 66 1019.0
20260503200336 7 250 4.8 0.0 0.00 0.00 0.00 66 1019.0
20260503194852 8 1.6 0.0 0.00 0.00 0.00 62 1019.0
20260503193444 8 1.6 0.0 0.00 0.00 0.00 62 1019.0
20260503191826 10 240 1.6 0.0 0.00 0.00 0.00 54 1019.0
20260503190326 10 240 1.6 0.0 0.00 0.00 0.00 54 1019.0
20260503184943 11 210 3.2 0.0 0.00 0.00 0.00 50 1018.0
20260503183326 11 210 3.2 0.0 0.00 0.00 0.00 50 1018.0
20260503181826 12 260 9.7 0.0 0.00 0.00 0.00 51 1018.0
20260503180326 12 260 9.7 0.0 0.00 0.00 0.00 51 1018.0
20260503174846 12 250 11.3 0.0 0.00 0.00 0.00 47 1018.0
20260503173351 12 250 11.3 0.0 0.00 0.00 0.00 47 1018.0
20260503171826 15 250 11.3 0.0 0.00 0.00 0.00 45 1018.0
20260503170327 15 250 11.3 0.0 0.00 0.00 0.00 45 1018.0
20260503150326 17 310 8.0 0.0 0.00 0.00 0.00 30 1019.0
20260503130326 16 8.0 0.0 0.00 0.00 0.00 31 1020.0
20260503110347 15 8.0 0.0 0.00 0.00 0.00 34 1022.0
20260503090347 13 120 9.7 0.0 0.00 0.00 0.00 36 1023.0
20260503080337 12 4.8 0.0 0.00 0.00 0.00 47 1023.0
20260503071825 10 80 4.8 0.0 0.00 0.00 0.00 58 1023.0
20260503070327 10 80 4.8 0.0 0.00 0.00 0.00 58 1023.0
20260503060326 7 100 4.8 0.0 0.00 0.00 0.00 71 1023.0
20260503054826 5 100 8.0 0.0 0.00 0.00 0.00 81 1023.0
20260503053326 5 100 8.0 0.0 0.00 0.00 0.00 81 1023.0
20260503051826 2 80 8.0 0.0 0.00 0.00 0.00 87 1023.0
20260503050326 2 80 8.0 0.0 0.00 0.00 0.00 87 1023.0
20260503044826 2 80 9.7 0.0 0.00 0.00 0.00 87 1023.0
20260503043327 2 80 9.7 0.0 0.00 0.00 0.00 87 1023.0
20260503041826 1 3.2 0.0 0.00 0.00 0.00 87 1023.0
20260503040349 1 3.2 0.0 0.00 0.00 0.00 87 1023.0
20260503034828 0 90 9.7 0.0 0.00 0.00 0.00 87 1023.0
20260503033326 0 90 9.7 0.0 0.00 0.00 0.00 87 1023.0
20260503031826 0 50 4.8 0.0 0.00 0.00 0.00 93 1023.0
20260503030326 0 50 4.8 0.0 0.00 0.00 0.00 93 1023.0
20260503024841 0 100 4.8 0.0 0.00 0.00 0.00 87 1023.0
20260503023326 0 100 4.8 0.0 0.00 0.00 0.00 87 1023.0
20260503021826 -1 60 1.6 0.0 0.00 0.00 0.00 93 1022.0
20260503020326 -1 60 1.6 0.0 0.00 0.00 0.00 93 1022.0
20260503014826 1 340 3.2 0.0 0.00 0.00 0.00 87 1022.0
20260503013326 1 340 3.2 0.0 0.00 0.00 0.00 87 1022.0
20260503011826 -1 100 9.7 0.0 0.00 0.00 0.00 93 1022.0
20260503010326 -1 100 9.7 0.0 0.00 0.00 0.00 93 1022.0
20260503004826 1 3.2 0.0 0.00 0.00 0.00 87 1022.0
20260503003326 1 3.2 0.0 0.00 0.00 0.00 87 1022.0
20260503001826 2 3.2 0.0 0.00 0.00 0.00 81 1022.0
20260503000326 2 3.2 0.0 0.00 0.00 0.00 81 1022.0
20260502234826 2 1.6 0.0 0.00 0.00 0.00 81 1022.0
20260502233326 2 1.6 0.0 0.00 0.00 0.00 81 1022.0
20260502231826 3 230 1.6 0.0 0.00 0.00 0.00 75 1023.0
20260502230326 3 230 1.6 0.0 0.00 0.00 0.00 75 1023.0